AO-07 1 07530U 74089B 26105.76511919 -.00000036 00000-0 66580-4 0 9995 2 07530 101.9943 118.3539 0011886 249.5807 280.1984 12.53697106352690 UO-11 1 14781U 84021B 26105.86347981 .00000773 00000-0 84603-4 0 9998 2 14781 97.8006 72.1616 0008540 39.2959 320.8877 14.90632276247840 AO-27 1 22825U 93061C 26105.13790632 .00000048 00000-0 35178-4 0 9993 2 22825 98.6917 172.5627 0007255 287.5093 72.5297 14.30925061697986 FO-29 1 24278U 96046B 26105.61319097 -.00000019 00000-0 19490-4 0 9996 2 24278 98.5319 323.0277 0348819 258.7948 97.3802 13.53271175464705 GO-32 1 25397U 98043D 26105.54785078 .00000029 00000-0 32769-4 0 9990 2 25397 99.0058 96.7332 0002126 60.5815 299.5575 14.24415868442415 ISS 1 25544U 98067A 26105.55408209 .00005244 00000-0 10354-3 0 9998 2 25544 51.6327 250.0746 0006583 315.7730 44.2732 15.48924547562046 NO-44 1 26931U 01043C 26105.57729721 .00000042 00000-0 46779-4 0 9996 2 26931 67.0518 46.2057 0006664 264.3457 95.6885 14.31931241281480 SO-50 1 27607U 02058C 26105.03562669 .00000465 00000-0 73069-4 0 9992 2 27607 64.5525 324.3546 0075538 273.9658 85.2815 14.82908260255096 CO-55 1 27844U 03031E 26105.30486740 .00000188 00000-0 10046-3 0 9999 2 27844 98.6765 114.6504 0009804 15.6729 344.4752 14.24296041182722 RS-22 1 27939U 03042A 26105.60410414 .00000208 00000-0 40417-4 0 9993 2 27939 98.3463 288.1999 0012499 105.6136 344.1161 14.73352496206336 CO-65 1 32785U 08021C 26105.85648153 .00002298 00000-0 15015-3 0 9996 2 32785 97.8245 86.0223 0007365 233.8901 126.1646 15.08860165975793 CO-66 1 32791U 08021J 26105.74453544 .00010411 00000-0 35422-3 0 9999 2 32791 97.7524 100.7702 0004239 136.1123 224.0454 15.30626864977735 RS-30 1 32953U 08025A 26105.80840103 .00000042 00000-0 22688-3 0 9990 2 32953 82.5066 34.2337 0020593 86.6163 273.7272 12.43177703811940 SRMSAT 1 37841U 11058D 26105.32212332 .00000357 00000-0 49632-4 0 9993 2 37841 19.9719 79.9733 0011633 231.5218 270.0727 14.11560384748923 ZACUBE-1 1 39417U 13066B 26105.87420361 .00002122 00000-0 16912-3 0 9994 2 39417 97.8129 67.8801 0044912 99.9908 260.6388 15.00670787671385 Delfi-N3xt 1 39428U 13066N 26105.51804919 .00004657 00000-0 41450-3 0 9992 2 39428 97.8350 25.9244 0077284 56.0420 304.8114 14.94261857665264 GOMX-1 1 39430U 13066Q 26105.80648000 .00000819 00000-0 13085-3 0 9993 2 39430 97.6539 310.1946 0127594 278.0655 80.6092 14.69233945660750 LO-74 1 39440U 13066AA 26105.82278029 .00001425 00000-0 13763-3 0 9993 2 39440 97.8864 54.5787 0056616 233.3182 126.2827 14.93338768667689 AO-73 1 39444U 13066AE 26105.85963904 .00005338 00000-0 33985-3 0 9998 2 39444 97.8233 76.0625 0038549 57.5687 302.9260 15.08594905670260 DTUSAT-2 1 40030U 14033W 26104.94680633 .00004223 00000-0 23529-3 0 9995 2 40030 98.0865 98.7057 0009871 91.7149 268.5212 15.14175908643119 LILACSAT-2 1 40908U 15049K 26105.86005412 .00010789 00000-0 19803-3 0 9999 2 40908 97.4743 140.4000 0008857 114.9534 245.2638 15.49408564586095 Horyu-4 1 41340U 16012D 26105.85947485 .00078959 00000-0 59937-3 0 9990 2 41340 30.9889 166.5205 0006070 144.2759 215.8303 15.70922314560941 Lapan A3 1 41603U 16040E 26105.91560855 .00002153 00000-0 70493-4 0 9996 2 41603 97.1494 104.1299 0008739 232.6662 127.3785 15.32697283545272 CAS-2T 1 41847U 16066G 26105.76401528 .00000308 00000-0 53289-4 0 9992 2 41847 98.3839 182.2024 0341405 319.1244 38.4792 14.44555031495784 TechnoSat 1 42829U 17042E 26105.80785411 .00001370 00000-0 10166-3 0 9995 2 42829 97.4196 265.8821 0016735 309.5709 50.4039 15.04569733477327 AO-91 1 43017U 17073E 26105.60788239 .00004169 00000-0 18790-3 0 9998 2 43017 97.4798 334.1314 0153486 183.9254 176.0786 15.11599787455933 S-Net D 1 43186U 18014G 26105.70638747 .00002512 00000-0 13395-3 0 9996 2 43186 97.5411 10.9017 0006880 226.9279 133.1378 15.16087716449294 S-Net B 1 43187U 18014H 26105.65062285 .00002458 00000-0 13123-3 0 9997 2 43187 97.5416 10.8309 0007644 222.3033 137.7611 15.16058626449287 S-Net A 1 43188U 18014J 26105.70556169 .00002437 00000-0 13000-3 0 9994 2 43188 97.5427 11.0826 0007485 222.8596 137.2053 15.16094220449295 S-Net C 1 43189U 18014K 26105.65415110 .00002466 00000-0 13166-3 0 9994 2 43189 97.5443 11.0967 0009063 216.0896 143.9726 15.16050531447838 Ten-Koh 1 43677U 18084G 26105.06886648 .00001969 00000-0 15254-3 0 9993 2 43677 98.0790 294.7778 0009054 333.7048 26.3715 15.02671024406688 PO-101 1 43678U 18084H 26105.81032677 .00001215 00000-0 10241-3 0 9997 2 43678 98.1050 299.3757 0013829 18.7732 341.3998 15.00148783406864 QO-100 1 43700U 18090A 26105.84637957 .00000150 00000-0 00000 0 0 9990 2 43700 0.0134 246.8358 0001155 158.6622 128.9860 1.00272342 27051 MinXSS-2 1 43758U 18099A 26105.45423412 .00015682 00000-0 35804-3 0 9998 2 43758 97.4572 180.0931 0009286 132.5295 227.6738 15.42917759404448 AO-95 1 43770U 18099N 26105.39031055 .00005384 00000-0 21613-3 0 9994 2 43770 97.4443 165.9179 0008659 198.8751 161.2168 15.25362872403642 SNUSat 2 1 43782U 18099AA 26105.71693770 .00004407 00000-0 20228-3 0 9997 2 43782 97.4122 160.0870 0011548 148.4157 211.7774 15.20872406403531 SnugLite 1 43784U 18099AC 26105.80310166 .00006080 00000-0 24050-3 0 9990 2 43784 97.3934 160.7430 0004264 133.5676 226.5917 15.25820514403801 ITASat 1 1 43786U 18099AE 26105.68920707 .00003819 00000-0 18941-3 0 9995 2 43786 97.4095 158.4664 0012287 203.4333 156.6343 15.18254900403422 EAGLET 1 1 43790U 18099AJ 26105.67394942 .00002245 00000-0 13263-3 0 9999 2 43790 97.4297 157.0007 0010938 193.6781 166.4155 15.12462207402889 ESEO 1 43792U 18099AL 26105.84659227 .00001106 00000-0 84013-4 0 9997 2 43792 97.4046 145.8917 0012206 178.5496 181.5768 15.04059518402430 JO-97 1 43803U 18099AX 26105.41771106 .00007559 00000-0 24945-3 0 9999 2 43803 97.4190 168.1153 0007338 129.4195 230.7697 15.31681942404010 Suomi 100 1 43804U 18099AY 26105.65296909 .00006386 00000-0 24324-3 0 9997 2 43804 97.4246 166.3304 0011579 136.8325 223.3824 15.27013815403876 ISAT 1 43879U 18111D 26105.24424470 .00034369 00000-0 49358-3 0 9991 2 43879 97.5910 36.1258 0007641 138.6021 221.5813 15.56010138401353 UWE-4 1 43880U 18111E 26105.74664061 .00017542 00000-0 40669-3 0 9990 2 43880 97.5861 31.4523 0008412 170.4812 189.6596 15.42445558401144 Sparrow 1 43881U 18111F 26105.80067794 .00055475 00000-0 65684-3 0 9999 2 43881 97.6129 41.4680 0005185 144.5330 215.6272 15.61074858401603 Prox-1 1 44339U 19036A 26105.83618955 .00006978 00000-0 69239-3 0 9993 2 44339 23.9947 170.2563 0006631 38.1037 321.9930 14.89129772364168 Taurus 1 1 44530U 19059C 26105.83079983 .00002975 00000-0 48910-3 0 9999 2 44530 98.6355 266.8427 0009728 144.4675 215.7180 14.71397835349475 TO-108 1 44881U 19093C 26105.84561420 .00000667 00000-0 81557-4 0 9990 2 44881 97.7562 179.5940 0012180 295.7008 64.2949 14.86420500342150 RS-44 1 44909U 19096E 26105.85123304 .00000002 00000-0 -28914-4 0 9992 2 44909 82.5263 21.1254 0216457 290.2807 67.5147 12.79747907294370 SALSAT 1 46495U 20068K 26105.26708578 .00004087 00000-0 14851-3 0 9992 2 46495 97.8862 104.5486 0010710 153.9105 206.2675 15.28870140305744 CSS (TIANHE-1) 1 48274U 21035A 26105.10565101 .00016935 00000-0 18883-3 0 9994 2 48274 41.4685 346.2836 0005652 210.9346 149.1161 15.62403855283308 CUTE 1 49263U 21088D 26105.52720395 .00058956 00000-0 43341-3 0 9991 2 49263 97.4198 199.9456 0003053 194.3126 165.8051 15.72922094252651 TeikyoSat 4 1 49396U 21102B 26105.60560487 .00000811 00000-0 54643-4 0 9993 2 49396 97.3735 137.5130 0013089 142.6777 217.5364 15.09284423243287 Z-Sat 1 49399U 21102E 26105.84013713 .00002413 00000-0 12222-3 0 9993 2 49399 97.3397 143.0573 0018500 103.8959 256.4334 15.17783752243985 KOSEN 1 1 49402U 21102H 26105.60093198 .00004289 00000-0 16923-3 0 9992 2 49402 97.3260 148.9930 0015520 72.5110 287.7823 15.25971121244473 HO-113 1 50466U 21131B 26105.85366020 .00000209 00000-0 78206-4 0 9991 2 50466 98.4948 198.5929 0002905 291.7303 68.3576 14.41296211226139 SNUGLITE 2 1 52899U 22065F 26105.84767227 .00000558 00000-0 11511-3 0 9995 2 52899 98.2107 250.8239 0006862 210.7213 149.3589 14.64226954201879 UmKA 1 (RS40S) 1 57172U 23091G 26105.57248381 .00003238 00000-0 15282-3 0 9996 2 57172 97.5110 164.5265 0012196 345.2020 14.8856 15.20121693154496 CubeBel-2 (EU11S) 1 57175U 23091K 26105.59451610 .00007019 00000-0 26172-3 0 9993 2 57175 97.5108 168.3084 0009182 344.4782 15.6174 15.27712523154749 RS-38S 1 57189U 23091Z 26105.56675098 .00008526 00000-0 26075-3 0 9999 2 57189 97.5137 173.8820 0005954 294.9894 65.0730 15.34092903155087 SONATE-2 1 59112U 24043Q 26105.38958023 .00020168 00000-0 30914-3 0 9990 2 59112 97.5455 252.1850 0007306 77.3599 282.8471 15.54334647118121 GRBBeta 1 60237U 24128C 26105.29202933 .00001819 00000-0 13552-3 0 9997 2 60237 61.9889 76.8454 0048050 121.3962 239.1844 15.06136294 96795 Curium One 1 60242U 24128H 26105.60844073 .00004151 00000-0 25058-3 0 9991 2 60242 61.9784 67.2433 0047653 117.7651 242.8288 15.11517253 96997 ROBUSTA-3A 1 60243U 24128J 26105.60524743 .00003955 00000-0 24449-3 0 9995 2 60243 61.9858 69.3865 0048776 115.2226 245.3937 15.10700843 96964 CatSat 1 60246U 24125J 26105.34394280 .00025213 00000-0 40843-3 0 9994 2 60246 97.2165 317.3209 0025481 58.3293 302.0440 15.52399909 97624 HYPERVIEW-1G (RS66S) 1 61772U 24199AP 26105.62176818 .00047958 00000-0 51500-3 0 9998 2 61772 97.3008 342.7920 0009279 135.7957 224.4045 15.63594597124869 AO-123 1 61781U 24199AY 26105.59188147 .00004520 00000-0 13612-3 0 9992 2 61781 97.3095 334.8390 0014480 166.6372 193.5257 15.34756936124329 JINJUSat 1B 1 63210U 25052A 26105.26674429 .00007749 00000-0 25667-3 0 9996 2 63210 97.4080 2.0103 0002116 347.8587 12.2603 15.31578309 60462 NUSHSAT 1 1 63211U 25052B 26105.59729622 .00011462 00000-0 35524-3 0 9999 2 63211 97.4059 2.7136 0002067 357.3059 2.8172 15.33590507 60548 TEVEL2-4 1 63213U 25052D 26105.21281148 .00008332 00000-0 26838-3 0 9996 2 63213 97.3979 1.5836 0002452 25.6004 334.5359 15.32451210 60466 TEVEL2-5 1 63214U 25052E 26105.22689471 .00008010 00000-0 25923-3 0 9996 2 63214 97.3977 1.5625 0002443 26.3537 333.7829 15.32310219 60466 TEVEL2-6 1 63215U 25052F 26104.64993692 .00009505 00000-0 30758-3 0 9997 2 63215 97.3983 0.9713 0002594 25.1375 334.9993 15.32260434 60377 TEVEL2-1 1 63217U 25052H 26104.46254423 .00009315 00000-0 30586-3 0 9999 2 63217 97.3953 0.4796 0003177 34.6991 325.4457 15.31794864 60333 TEVEL2-3 1 63218U 25052J 26105.43904977 .00008266 00000-0 27122-3 0 9990 2 63218 97.3958 1.4692 0003119 32.8444 327.2991 15.31855590 60487 TEVEL2-2 1 63219U 25052K 26105.44298954 .00008650 00000-0 28405-3 0 9995 2 63219 97.3957 1.4596 0003093 32.4565 327.6866 15.31817486 60488 TEVEL2-9 1 63237U 25052AD 26105.60457267 .00008872 00000-0 30782-3 0 9994 2 63237 97.4014 1.1226 0006779 23.1336 337.0209 15.30007003 60455 TEVEL2-7 1 63238U 25052AE 26104.98035611 .00009103 00000-0 31825-3 0 9997 2 63238 97.4020 0.4413 0006956 24.8941 335.2633 15.29749027 60357 TEVEL2-8 1 63239U 25052AF 26105.44576761 .00007545 00000-0 26441-3 0 9992 2 63239 97.4016 0.8838 0006950 24.9786 335.1790 15.29734571 60429 HYDRA-W 1 63490U 25052BL 26104.62284422 .00525064 10849-3 16841-2 0 9998 2 63490 97.3777 8.0138 0005913 140.9563 219.2139 15.90955667 60848 HADES-ICM (SO-125) 1 63492U 25052BN 26104.47883696 .00158505 00000-0 12433-2 0 9991 2 63492 97.3893 6.5635 0003945 81.3378 278.8331 15.71060930 60731 SPIRONE 1 66657U 25274H 26105.74187891 .00001388 00000-0 13787-3 0 9998 2 66657 97.7463 35.9464 0011080 216.3506 143.6962 14.93289026 20908 K-HERO 1 66660U 25274L 26105.69727216 .00001243 00000-0 12268-3 0 9990 2 66660 97.7469 36.0167 0012839 222.2954 137.7277 14.93726929 20907 SNUGLITE-III DURI 1 66661U 25274M 26105.55330520 .00001300 00000-0 12777-3 0 9993 2 66661 97.7467 35.8925 0013444 223.9225 136.0927 14.93792562 20884 SilverSat 1 66909U 98067XV 26105.06953545 .00663705 20908-3 12552-2 0 9997 2 66909 51.6140 235.4536 0013604 318.9730 41.0255 15.99998535 20958 SAKHACUBE-CHOLBON 1 67290U 25313AU 26105.73062506 .00005151 00000-0 21709-3 0 9995 2 67290 97.3961 181.5950 0009038 206.9736 153.1032 15.23736468 16460 RS95S (QMR-KWT-2) 1 67291U 25313AV 26105.17522016 .00006376 00000-0 26088-3 0 9996 2 67291 97.3960 181.1154 0008876 207.4463 152.6307 15.24643126 16383 Ten-Koh2 1 68261U 25241B 26105.83021767 .00004974 00000-0 22194-3 0 9990 2 68261 51.6431 256.2725 0005041 297.6495 62.3970 15.23083660 5406 IO-86 1 40931U 25360.30710720 .00000000 00000-0 12800-3 0 00 2 40931 6.0006 332.5373 0012733 338.8432 8.1437 14.79075515 01 HADES-SA/SpinnyONE 1 71958C 26067D 26089.49758863 -.00009989 00000 0 -51655-3 0 00 2 71958 97.4320 49.1630 0007687 13.6276 327.6456 15.16316797 13 LILIUM-4 1 71922C 26067AC 26089.50133053 -.00014632 00000 0 -74472-3 0 04 2 71922 97.4497 49.1617 0004341 5.9603 355.7042 15.16896692 16 PARUS-6U1 1 71919C 26067Q 26089.49893470 -.00013781 00000 0 -70600-3 0 07 2 71919 97.4488 49.1589 0005235 359.3198 349.2677 15.16662579 15 JACK-002 1 71927C 26067C 26089.49750414 -.00013014 00000 0 -63498-3 0 02 2 71927 97.4500 49.1567 0002681 143.8886 196.8842 15.18377566 18 SAL-E 1 71904C 26067L 26089.49846595 -.00007742 00000 0 -39877-3 0 08 2 71904 97.4412 49.1602 0006442 8.2554 337.7892 15.16462720 16 DISCO-2 1 71908C 26067U 26089.49955160 -.00011726 00000 0 -58129-3 0 09 2 71908 97.4541 49.1588 0000289 282.0588 69.8834 15.17826845 10